Waarnemingen

Advertentie
Mijn weer
Geneve-Cointrin, Zwitserland (6700): temperatuur & dauwpunt: 23.03.2020 22:00:00 - 29.03.2020 22:00:00 (CEST)Geneve-Cointrin, Zwitserland (6700): temperatuur 5cm: 23.03.2020 22:00:00 - 29.03.2020 22:00:00 (CEST)Geneve-Cointrin, Zwitserland (6700): windsnelheid & windstoten: 23.03.2020 22:00:00 - 29.03.2020 22:00:00 (CEST)Geneve-Cointrin, Zwitserland (6700): windrichting: 23.03.2020 22:00:00 - 29.03.2020 22:00:00 (CEST)Geneve-Cointrin, Zwitserland (6700): luchtdruk: 23.03.2020 22:00:00 - 29.03.2020 22:00:00 (CEST)Geneve-Cointrin, Zwitserland (6700): zicht: 23.03.2020 22:00:00 - 29.03.2020 22:00:00 (CEST)Geneve-Cointrin, Zwitserland (6700): Zonneschijnduur: 23.03.2020 22:00:00 - 29.03.2020 22:00:00 (CEST)Geneve-Cointrin, Zwitserland (6700): neerslag: 23.03.2020 22:00:00 - 29.03.2020 22:00:00 (CEST)
Datum & Tijd tt [°C] td [°C] tt 5cm [°C] ff [km/u] ff [kn] fx [km/u] fx [kn] dd ppp [hPa] vv [km] sd [min] rr [mm]
29.03.2020 22:00:00 4,9 0,2 4,2 28 15 48 26 NO 1019,7 - 0 0,0
29.03.2020 21:00:00 5,4 0,7 4,9 28 15 45 24 NO 1019,4 - 0 0,0
29.03.2020 20:00:00 5,9 2,4 5,4 21 11 40 22 NNO 1018,7 13 0 0,0
29.03.2020 19:00:00 7,9 0,5 7,1 16 9 36 19 N 1017,4 - 0 0,0
29.03.2020 18:00:00 7,9 1,3 7,5 10 5 32 17 N 1016,8 - 0 0,0
29.03.2020 17:00:00 9,1 1,6 8,8 13 7 40 21 NNW 1015,9 15 0 0,0
29.03.2020 16:00:00 11,1 2,4 11,4 15 8 35 19 NNW 1015,2 - 0 0,0
29.03.2020 15:00:00 11,7 5,1 10,2 10 5 21 11 NO 1014,9 - 0 0,0
29.03.2020 14:00:00 13,1 2,9 13,9 14 8 26 14 NNO 1014,7 14 0 0,0
29.03.2020 13:00:00 13,6 3,1 16,0 18 10 31 17 NO 1014,7 - 46 0,0
29.03.2020 12:00:00 13,3 2,5 16,4 19 10 32 18 NO 1014,9 - 59 0,0
29.03.2020 11:00:00 12,7 3,8 14,9 21 11 34 18 NO 1015,4 16 12 0,0
29.03.2020 10:00:00 10,0 5,3 10,3 1 0 3 2 NNO 1016,0 - 0 0,0
29.03.2020 09:00:00 8,6 4,8 8,2 2 1 5 3 NNW 1015,9 - 0 0,0
29.03.2020 08:00:00 7,4 4,1 6,1 1 1 5 3 W 1016,0 16 0 0,0
29.03.2020 07:00:00 7,5 4,0 5,3 1 1 7 4 N 1015,8 - 0 0,0
29.03.2020 06:00:00 7,6 3,7 5,5 3 1 4 2 O 1016,0 - 0 0,0
29.03.2020 05:00:00 8,1 3,5 6,0 1 1 5 3 WNW 1016,0 - 0 0,0
29.03.2020 04:00:00 7,3 3,7 5,6 3 2 6 3 W 1016,4 - 0 0,0
29.03.2020 03:00:00 7,3 3,2 5,3 4 2 7 4 W 1016,7 - 0 0,0
29.03.2020 02:00:00 6,6 2,9 3,0 2 1 6 3 W 1017,1 - 0 0,0
29.03.2020 01:00:00 8,2 3,6 3,9 3 2 5 3 W 1016,8 - 0 0,0
29.03.2020 00:00:00 9,4 4,0 5,6 1 0 6 3 NNW 1016,5 - 0 0,0
28.03.2020 23:00:00 10,3 4,4 5,8 3 2 5 3 NO 1016,3 20 0 0,0
28.03.2020 22:00:00 11,3 4,6 7,7 5 3 12 6 ONO 1016,1 - 0 0,0
28.03.2020 21:00:00 12,7 5,3 10,6 4 2 14 8 ONO 1015,4 - 0 0,0
28.03.2020 20:00:00 15,1 4,2 12,7 3 2 6 3 NW 1014,6 20 0 0,0
28.03.2020 19:00:00 15,5 4,0 14,0 4 2 13 7 N 1014,1 - 1 0,0
28.03.2020 18:00:00 15,9 3,4 16,3 11 6 21 11 NNO 1013,9 - 41 0,0
28.03.2020 17:00:00 15,7 2,4 16,5 12 6 22 12 NO 1014,1 14 47 0,0
28.03.2020 16:00:00 16,1 2,2 19,5 14 7 23 12 NO 1014,3 - 60 0,0
28.03.2020 15:00:00 15,0 1,9 18,9 12 7 20 11 ONO 1015,1 - 60 0,0
28.03.2020 14:00:00 14,1 1,4 19,0 10 5 20 11 NO 1015,9 17 60 0,0
28.03.2020 13:00:00 13,3 1,8 18,0 7 4 12 6 ONO 1016,3 - 60 0,0
28.03.2020 12:00:00 11,7 3,0 16,6 5 3 9 5 ZO 1017,2 - 60 0,0
28.03.2020 11:00:00 9,3 1,7 14,2 6 3 11 6 ONO 1018,1 17 60 0,0
28.03.2020 10:00:00 7,8 1,8 11,2 5 3 11 6 ONO 1018,3 - 60 0,0
28.03.2020 09:00:00 5,7 1,9 7,8 1 1 12 7 NNO 1018,5 - 9 0,0
28.03.2020 08:00:00 3,6 1,1 2,8 4 2 6 3 N 1018,8 17 0 0,0
28.03.2020 07:00:00 2,8 0,9 1,9 2 1 11 6 W 1018,5 - 0 0,0
28.03.2020 06:00:00 2,0 0,0 -0,2 1 1 8 4 WNW 1018,7 - 0 0,0
28.03.2020 05:00:00 1,8 -0,4 -1,0 2 1 6 3 ZW 1018,6 - 0 0,0
28.03.2020 04:00:00 1,3 -0,8 -1,0 4 2 5 3 WZW 1018,6 - 0 0,0
28.03.2020 03:00:00 2,9 0,3 -0,3 3 1 4 2 W 1018,2 - 0 0,0
28.03.2020 02:00:00 3,3 0,4 -0,3 1 1 5 3 NNW 1017,9 - 0 0,0
28.03.2020 01:00:00 4,0 0,5 0,4 5 3 7 4 WNW 1017,8 - 0 0,0
28.03.2020 00:00:00 5,1 -0,1 1,0 2 1 5 3 W 1017,4 - 0 0,0
27.03.2020 23:00:00 5,7 -0,1 2,2 3 2 8 5 WZW 1016,9 20 0 0,0
27.03.2020 22:00:00 7,4 -0,2 3,3 4 2 5 3 WNW 1016,2 - 0 0,0
27.03.2020 21:00:00 8,7 -0,1 4,7 2 1 9 5 N 1015,4 - 0 0,0
27.03.2020 20:00:00 10,3 -0,6 7,0 6 3 10 5 O 1014,4 20 0 0,0
27.03.2020 19:00:00 11,8 -0,7 11,3 5 3 9 5 NO 1013,6 - 16 0,0
27.03.2020 18:00:00 11,5 -0,5 12,1 7 4 16 9 ONO 1013,3 - 20 0,0
27.03.2020 17:00:00 12,6 0,0 16,8 4 2 15 8 WZW 1013,1 16 60 0,0
27.03.2020 16:00:00 11,4 -0,6 15,0 6 3 14 8 O 1013,5 - 57 0,0
27.03.2020 15:00:00 10,9 -0,3 15,1 9 5 19 10 ONO 1013,9 - 60 0,0
27.03.2020 14:00:00 9,2 -0,3 14,0 10 5 21 11 ONO 1014,5 18 60 0,0
27.03.2020 13:00:00 8,1 -1,2 13,4 5 3 22 12 N 1014,9 - 60 0,0
27.03.2020 12:00:00 6,5 -1,2 9,4 11 6 19 10 NO 1015,7 - 48 0,0
27.03.2020 11:00:00 5,5 -2,1 8,7 14 7 18 10 ONO 1015,9 20 56 0,0
27.03.2020 10:00:00 4,5 -2,0 7,1 5 3 10 5 NNO 1016,0 - 15 0,0
27.03.2020 09:00:00 2,3 -2,1 1,8 3 2 5 3 W 1016,4 - 0 0,0
27.03.2020 08:00:00 0,3 -3,5 -2,0 3 2 11 6 NW 1016,5 22 0 0,0
27.03.2020 07:00:00 0,0 -3,6 -2,5 1 1 10 6 WZW 1016,1 - 0 0,0
27.03.2020 06:00:00 0,4 -3,4 -2,0 1 1 6 4 WZW 1015,7 - 0 0,0
27.03.2020 05:00:00 0,3 -3,4 -2,9 4 2 8 4 WNW 1015,7 - 0 0,0
27.03.2020 04:00:00 1,4 -3,4 -2,5 3 2 5 3 NW 1015,5 - 0 0,0
27.03.2020 03:00:00 3,0 -3,0 -0,7 2 1 9 5 ZZO 1015,2 - 0 0,0
27.03.2020 02:00:00 3,3 -2,6 1,8 5 3 28 15 N 1015,0 - 0 0,0
27.03.2020 01:00:00 4,6 -3,1 2,7 18 10 40 22 NO 1014,8 - 0 0,0
27.03.2020 00:00:00 5,1 -3,8 3,7 21 11 38 21 NNO 1014,5 - 0 0,0
26.03.2020 23:00:00 5,7 -5,2 4,4 20 11 39 21 NNO 1014,3 30 0 0,0
26.03.2020 22:00:00 6,8 -5,1 5,2 20 11 37 20 NNO 1014,0 - 0 0,0
26.03.2020 21:00:00 7,3 -5,6 5,8 18 10 39 21 NNO 1013,6 - 0 0,0
26.03.2020 20:00:00 7,9 -5,6 6,3 17 9 35 19 NNO 1013,0 30 0 0,0
26.03.2020 19:00:00 8,8 -5,3 8,0 21 12 36 20 NO 1012,4 - 10 0,0
26.03.2020 18:00:00 9,6 -5,2 10,8 20 11 36 19 NO 1012,1 - 60 0,0
26.03.2020 17:00:00 9,8 -3,8 12,1 24 13 37 20 NO 1012,3 30 60 0,0
26.03.2020 16:00:00 9,4 -3,9 12,6 25 14 36 20 NO 1012,6 - 60 0,0
26.03.2020 15:00:00 8,1 -4,7 12,6 17 9 26 14 ONO 1013,3 - 60 0,0
26.03.2020 14:00:00 7,8 -3,6 11,9 17 9 31 17 NNO 1013,9 20 60 0,0
26.03.2020 13:00:00 5,9 -4,6 10,3 20 11 29 15 ONO 1014,4 - 60 0,0
26.03.2020 12:00:00 5,6 -4,3 9,4 16 9 30 16 NO 1014,8 - 60 0,0
26.03.2020 11:00:00 4,3 -3,9 7,7 16 9 29 16 NO 1015,2 18 59 0,0
26.03.2020 10:00:00 3,0 -4,5 5,2 22 12 32 18 NO 1015,1 - 60 0,0
26.03.2020 09:00:00 2,3 -5,3 2,2 20 11 35 19 NO 1015,0 - 33 0,0
26.03.2020 08:00:00 1,8 -5,4 0,0 18 10 32 18 NO 1014,8 17 0 0,0
26.03.2020 07:00:00 1,9 -5,2 -0,2 18 10 32 17 NO 1014,6 - 0 0,0
26.03.2020 06:00:00 2,3 -5,0 0,2 11 6 31 17 NO 1014,1 - 0 0,0
26.03.2020 05:00:00 2,0 -4,9 -1,9 10 6 21 12 NO 1014,2 - 0 0,0
26.03.2020 04:00:00 -0,2 -5,1 -3,6 1 1 12 7 WZW 1014,6 - 0 0,0
26.03.2020 03:00:00 1,7 -5,1 -2,0 5 3 17 9 N 1014,2 - 0 0,0
26.03.2020 02:00:00 3,2 -5,0 0,6 9 5 34 18 N 1014,1 - 0 0,0
26.03.2020 01:00:00 4,4 -4,7 2,5 19 10 31 17 NNO 1014,3 - 0 0,0
26.03.2020 00:00:00 4,8 -5,8 3,6 18 10 29 16 NNO 1014,7 - 0 0,0
25.03.2020 23:00:00 4,7 -6,3 3,1 19 11 37 20 NNO 1014,6 14 0 0,0
25.03.2020 22:00:00 4,6 -6,3 2,9 16 9 43 23 NNO 1014,8 - 0 0,0
25.03.2020 21:00:00 5,8 -6,0 3,9 18 10 40 21 NNO 1014,6 - 0 0,0
25.03.2020 20:00:00 6,5 -5,9 4,8 22 12 46 25 NNO 1014,2 14 0 0,0
25.03.2020 19:00:00 7,6 -6,4 6,6 26 14 42 23 NNO 1014,0 - 25 0,0
25.03.2020 18:00:00 7,8 -6,1 7,3 28 15 44 24 NO 1014,3 - 37 0,0
25.03.2020 17:00:00 8,6 -5,9 11,2 25 14 41 22 NO 1014,5 14 60 0,0
25.03.2020 16:00:00 8,8 -4,3 11,9 20 11 35 19 ONO 1015,3 - 60 0,0
25.03.2020 15:00:00 7,6 -6,8 11,8 23 12 36 19 ONO 1016,7 - 60 0,0
25.03.2020 14:00:00 6,6 -5,9 11,5 18 10 28 15 NNO 1017,9 16 60 0,0
25.03.2020 13:00:00 6,2 -4,4 10,4 14 7 29 16 NO 1018,6 - 60 0,0
25.03.2020 12:00:00 5,1 -4,3 8,8 19 10 34 18 NO 1019,9 - 60 0,0
25.03.2020 11:00:00 3,7 -4,9 7,0 21 11 34 18 NO 1021,2 16 60 0,0
25.03.2020 10:00:00 3,0 -5,1 4,9 21 11 35 19 NO 1022,0 - 60 0,0
25.03.2020 09:00:00 2,2 -5,1 3,0 21 11 33 18 NO 1022,3 - 33 0,0
25.03.2020 08:00:00 1,1 -5,3 -0,7 16 9 29 16 NNO 1022,8 19 0 0,0
25.03.2020 07:00:00 1,7 -5,3 -0,3 18 10 28 15 NNO 1022,9 - 0 0,0
25.03.2020 06:00:00 0,1 -5,4 -2,3 7 4 21 12 N 1023,3 - 0 0,0
25.03.2020 05:00:00 1,2 -5,3 -0,2 8 4 27 15 N 1023,6 - 0 0,0
25.03.2020 04:00:00 1,9 -5,1 -0,8 9 5 21 11 N 1023,6 - 0 0,0
25.03.2020 03:00:00 2,5 -5,2 0,3 12 6 29 16 NNO 1023,8 - 0 0,0
25.03.2020 02:00:00 3,1 -5,2 1,0 16 8 34 19 NNO 1023,7 - 0 0,0
25.03.2020 01:00:00 3,7 -5,0 1,7 16 8 33 18 NNO 1023,7 - 0 0,0
25.03.2020 00:00:00 4,6 -5,4 2,7 19 10 35 19 NNO 1023,2 - 0 0,0
24.03.2020 23:00:00 5,2 -6,4 2,9 17 9 31 17 NNO 1023,0 20 0 0,0
24.03.2020 22:00:00 5,9 -6,5 3,6 18 10 28 15 NNO 1022,2 - 0 0,0
24.03.2020 21:00:00 5,4 -6,5 2,8 9 5 19 11 N 1021,9 - 0 0,0
24.03.2020 20:00:00 6,7 -7,2 3,9 11 6 29 16 NNO 1021,2 40 25 0,0
24.03.2020 19:00:00 8,1 -6,4 8,0 19 11 31 17 NNO 1020,9 - 60 0,0
24.03.2020 18:00:00 8,2 -6,5 10,3 15 8 40 21 NNO 1021,1 - 60 0,0
24.03.2020 17:00:00 7,8 -7,1 10,2 25 14 42 23 NNO 1021,5 40 60 0,0
24.03.2020 16:00:00 8,1 -6,5 11,1 22 12 36 19 NNO 1022,4 - 60 0,0
24.03.2020 15:00:00 6,7 -6,3 11,0 22 12 36 19 NO 1023,4 - 60 0,0
24.03.2020 14:00:00 5,5 -5,9 10,0 19 10 35 19 NNO 1024,5 50 60 0,0
24.03.2020 13:00:00 5,0 -5,4 8,8 20 11 36 19 NO 1025,0 - 60 0,0
24.03.2020 12:00:00 3,5 -6,2 7,7 24 13 39 21 NO 1025,7 - 60 0,0
24.03.2020 11:00:00 2,8 -7,4 5,8 25 13 48 26 NO 1026,5 50 60 0,0
24.03.2020 10:00:00 1,3 -7,4 0,5 27 14 41 22 NO 1027,1 - 4 0,0
24.03.2020 09:00:00 0,4 -8,1 -0,5 20 11 34 18 NNO 1027,4 - 13 0,0
24.03.2020 08:00:00 -0,1 -7,6 -1,7 15 8 29 16 NNO 1027,4 50 0 0,0
24.03.2020 07:00:00 0,6 -7,6 -1,4 16 9 28 15 NNO 1027,2 - 0 0,0
24.03.2020 06:00:00 1,1 -7,7 -1,1 14 7 25 13 NNO 1027,3 - 0 0,0
24.03.2020 05:00:00 0,7 -7,2 -1,8 10 5 23 12 N 1027,5 - 0 0,0
24.03.2020 04:00:00 0,8 -7,2 -1,5 9 5 26 14 N 1027,4 - 0 0,0
24.03.2020 03:00:00 1,5 -7,8 -0,8 13 7 30 16 N 1027,4 - 0 0,0
24.03.2020 02:00:00 2,3 -7,6 0,4 15 8 30 16 NNO 1027,1 - 0 0,0
24.03.2020 01:00:00 3,1 -7,8 0,9 15 8 32 18 NNO 1027,0 - 0 0,0
24.03.2020 00:00:00 4,3 -7,9 2,2 19 10 31 17 NNO 1026,6 - 0 0,0
23.03.2020 23:00:00 5,1 -7,9 2,7 16 8 29 16 NNO 1026,1 30 0 0,0
23.03.2020 22:00:00 - - - - - - - - - - - -

tt = temperatuur
td = dauwpunt
tt 5cm = temperatuur 5cm
ff = windsnelheid
fx = windstoten
dd = windrichting
ppp = luchtdruk
vv = zicht
sd = Zonneschijnduur
rr = neerslag

Weerstations in de omgeving